Stündliche Wetter Bolshie Vikorovichi

Heute, 17 Januar, Sonntag

Zeit Temperatur Niederschläge Wind Luftdruck Luftfeuchtigkeit
00:00 -19°C° 0 mm 2 m/S 749 mmHg 93%
01:00 -19°C° 0 mm 2 m/S 749 mmHg 93%
02:00 -19°C° 0 mm 2 m/S 749 mmHg 93%
03:00 -19°C° 0 mm 2 m/S 749 mmHg 93%
04:00 -19°C° 0 mm 2 m/S 749 mmHg 92%
05:00 -19°C° 0 mm 2 m/S 749 mmHg 92%
06:00 -19°C° 0 mm 2 m/S 749 mmHg 91%
07:00 -19°C° 0 mm 2 m/S 749 mmHg 91%
08:00 -19°C° 0 mm 2 m/S 749 mmHg 90%
09:00 -19°C° 0 mm 2 m/S 749 mmHg 87%
10:00 -18°C° 0 mm 2 m/S 750 mmHg 85%
11:00 -18°C° 0 mm 2 m/S 750 mmHg 82%
12:00 -17°C° 0 mm 2 m/S 750 mmHg 82%
13:00 -17°C° 0 mm 2 m/S 750 mmHg 82%
14:00 -17°C° 0 mm 2 m/S 750 mmHg 82%
15:00 -17°C° 0 mm 2 m/S 750 mmHg 84%
16:00 -17°C° 0 mm 2 m/S 750 mmHg 87%
17:00 -18°C° 0 mm 2 m/S 751 mmHg 90%
18:00 -18°C° 0 mm 2 m/S 751 mmHg 90%
19:00 -18°C° 0 mm 2 m/S 751 mmHg 91%
20:00 -18°C° 0 mm 2 m/S 751 mmHg 92%
21:00 -18°C° 0 mm 2 m/S 751 mmHg 92%
22:00 -19°C° 0 mm 2 m/S 751 mmHg 93%
23:00 -20°C° 0 mm 2 m/S 751 mmHg 94%

Morgen, 18 Januar, Montag

Zeit Temperatur Niederschläge Wind Luftdruck Luftfeuchtigkeit
00:00 -20°C° 0 mm 2 m/S 752 mmHg 95%
01:00 -21°C° 0 mm 2 m/S 752 mmHg 95%
02:00 -21°C° 0 mm 2 m/S 752 mmHg 96%
03:00 -23°C° 0 mm 2 m/S 752 mmHg 96%
04:00 -23°C° 0 mm 2 m/S 752 mmHg 96%
05:00 -23°C° 0 mm 2 m/S 752 mmHg 96%
06:00 -23°C° 0 mm 2 m/S 752 mmHg 96%
07:00 -24°C° 0 mm 2 m/S 752 mmHg 96%
08:00 -24°C° 0 mm 2 m/S 753 mmHg 96%
09:00 -20°C° 0 mm 1 m/S 753 mmHg 94%
10:00 -19°C° 0 mm 1 m/S 753 mmHg 92%
11:00 -18°C° 0 mm 1 m/S 753 mmHg 90%
12:00 -18°C° 0 mm 1 m/S 753 mmHg 88%
13:00 -17°C° 0 mm 1 m/S 753 mmHg 87%
14:00 -16°C° 0 mm 1 m/S 753 mmHg 85%
15:00 -17°C° 0 mm 1 m/S 753 mmHg 87%
16:00 -17°C° 0 mm 1 m/S 753 mmHg 89%
17:00 -20°C° 0 mm 2 m/S 753 mmHg 92%
18:00 -20°C° 0 mm 2 m/S 753 mmHg 92%
19:00 -20°C° 0 mm 2 m/S 753 mmHg 92%
20:00 -20°C° 0 mm 2 m/S 753 mmHg 92%
21:00 -20°C° 0 mm 2 m/S 753 mmHg 91%
22:00 -18°C° 0 mm 1 m/S 753 mmHg 91%
23:00 -18°C° 0 mm 1 m/S 753 mmHg 91%

übermorgen, 19 Januar, Dienstag

Zeit Temperatur Niederschläge Wind Luftdruck Luftfeuchtigkeit
00:00 -18°C° 0 mm 1 m/S 753 mmHg 90%
01:00 -18°C° 0 mm 1 m/S 753 mmHg 90%
02:00 -18°C° 0 mm 1 m/S 753 mmHg 90%
03:00 -18°C° 0 mm 1 m/S 752 mmHg 90%
04:00 -18°C° 0 mm 1 m/S 752 mmHg 90%
05:00 -18°C° 0 mm 1 m/S 752 mmHg 90%
06:00 -18°C° 0 mm 1 m/S 752 mmHg 90%
07:00 -18°C° 0 mm 1 m/S 752 mmHg 90%
08:00 -18°C° 0 mm 1 m/S 752 mmHg 90%
09:00 -17°C° 0 mm 1 m/S 752 mmHg 88%
10:00 -16°C° 0 mm 1 m/S 752 mmHg 85%
11:00 -14°C° 0 mm 1 m/S 752 mmHg 83%
12:00 -13°C° 0 mm 1 m/S 752 mmHg 82%
13:00 -13°C° 0 mm 1 m/S 751 mmHg 81%
14:00 -12°C° 0 mm 1 m/S 751 mmHg 81%
15:00 -12°C° 0 mm 1 m/S 751 mmHg 83%
16:00 -15°C° 0 mm 2 m/S 751 mmHg 85%
17:00 -16°C° 0 mm 2 m/S 751 mmHg 87%
18:00 -16°C° 0 mm 2 m/S 751 mmHg 88%
19:00 -16°C° 0 mm 2 m/S 751 mmHg 88%
20:00 -16°C° 0 mm 2 m/S 751 mmHg 89%
21:00 -16°C° 0 mm 2 m/S 751 mmHg 90%
22:00 -15°C° 0 mm 2 m/S 751 mmHg 91%
23:00 -16°C° 0 mm 3 m/S 751 mmHg 93%

20 Januar, Mittwoch

Zeit Temperatur Niederschläge Wind Luftdruck Luftfeuchtigkeit
00:00 -15°C° 0 mm 3 m/S 751 mmHg 93%
01:00 -15°C° 0 mm 3 m/S 751 mmHg 94%
02:00 -14°C° 0 mm 3 m/S 751 mmHg 95%
03:00 -14°C° 0 mm 3 m/S 750 mmHg 95%
04:00 -14°C° 0 mm 3 m/S 750 mmHg 96%
05:00 -14°C° 0 mm 3 m/S 750 mmHg 96%
06:00 -14°C° 0 mm 3 m/S 750 mmHg 96%
07:00 -14°C° 0 mm 3 m/S 750 mmHg 96%
08:00 -13°C° 0 mm 3 m/S 750 mmHg 95%
09:00 -12°C° 0 mm 3 m/S 750 mmHg 94%
10:00 -11°C° 0 mm 4 m/S 750 mmHg 92%
11:00 -10°C° 0 mm 4 m/S 750 mmHg 90%
12:00 -9°C° 0 mm 4 m/S 750 mmHg 89%
13:00 -8°C° 0 mm 4 m/S 750 mmHg 88%
14:00 -7°C° 0 mm 4 m/S 749 mmHg 87%
15:00 -7°C° 0 mm 4 m/S 749 mmHg 89%
16:00 -8°C° 0 mm 4 m/S 749 mmHg 90%
17:00 -8°C° 0 mm 4 m/S 749 mmHg 91%
18:00 -8°C° 0.1 mm 4 m/S 749 mmHg 92%
19:00 -7°C° 0.1 mm 4 m/S 749 mmHg 93%
20:00 -7°C° 0.1 mm 5 m/S 749 mmHg 94%
21:00 -7°C° 0.4 mm 5 m/S 749 mmHg 94%
22:00 -5°C° 0.4 mm 4 m/S 748 mmHg 95%
23:00 -5°C° 0.4 mm 4 m/S 748 mmHg 96%

21 Januar, Donnerstag

Zeit Temperatur Niederschläge Wind Luftdruck Luftfeuchtigkeit
00:00 -5°C° 0.4 mm 5 m/S 748 mmHg 96%
01:00 -5°C° 0.4 mm 5 m/S 748 mmHg 96%
02:00 -4°C° 0.4 mm 5 m/S 748 mmHg 95%
03:00 -4°C° 0.1 mm 5 m/S 748 mmHg 94%
04:00 -3°C° 0.1 mm 4 m/S 748 mmHg 92%
05:00 -3°C° 0.1 mm 4 m/S 747 mmHg 90%
06:00 -3°C° 0 mm 4 m/S 747 mmHg 90%
07:00 -3°C° 0 mm 4 m/S 747 mmHg 90%
08:00 -3°C° 0 mm 4 m/S 747 mmHg 91%
09:00 -2°C° 0 mm 4 m/S 747 mmHg 89%
10:00 -2°C° 0 mm 4 m/S 747 mmHg 87%
11:00 -1°C° 0 mm 4 m/S 747 mmHg 86%
12:00 -1°C° 0 mm 4 m/S 747 mmHg 86%
13:00 0°C° 0 mm 4 m/S 747 mmHg 86%
14:00 0°C° 0 mm 5 m/S 747 mmHg 87%
15:00 0°C° 0 mm 5 m/S 746 mmHg 87%
16:00 0°C° 0 mm 5 m/S 746 mmHg 87%
17:00 0°C° 0 mm 5 m/S 746 mmHg 87%
18:00 0°C° 0 mm 5 m/S 745 mmHg 85%
19:00 0°C° 0 mm 5 m/S 745 mmHg 83%
20:00 0°C° 0 mm 5 m/S 745 mmHg 81%
21:00 0°C° 0 mm 5 m/S 745 mmHg 80%
22:00 +1°C° 0 mm 6 m/S 744 mmHg 80%
23:00 +1°C° 0 mm 6 m/S 744 mmHg 80%

22 Januar, Freitag

Zeit Temperatur Niederschläge Wind Luftdruck Luftfeuchtigkeit
00:00 +1°C° 0 mm 5 m/S 744 mmHg 81%
01:00 +1°C° 0 mm 5 m/S 744 mmHg 83%
02:00 +1°C° 0 mm 5 m/S 744 mmHg 84%
03:00 0°C° 0 mm 5 m/S 744 mmHg 86%
04:00 0°C° 0 mm 4 m/S 744 mmHg 87%
05:00 -1°C° 0 mm 4 m/S 744 mmHg 89%
06:00 -1°C° 0 mm 4 m/S 744 mmHg 90%
07:00 -1°C° 0 mm 3 m/S 744 mmHg 91%
08:00 -1°C° 0 mm 3 m/S 744 mmHg 92%
09:00 0°C° 0 mm 3 m/S 744 mmHg 92%
10:00 0°C° 0 mm 3 m/S 745 mmHg 91%
11:00 +1°C° 0 mm 3 m/S 745 mmHg 91%
12:00 +1°C° 0 mm 3 m/S 744 mmHg 91%
13:00 +2°C° 0 mm 3 m/S 744 mmHg 92%
14:00 +2°C° 0 mm 3 m/S 744 mmHg 93%
15:00 +2°C° 0 mm 3 m/S 744 mmHg 93%
16:00 +2°C° 0 mm 3 m/S 743 mmHg 92%
17:00 +2°C° 0 mm 3 m/S 743 mmHg 92%
18:00 +2°C° 0 mm 3 m/S 743 mmHg 92%
19:00 +2°C° 0 mm 3 m/S 743 mmHg 92%
20:00 +2°C° 0 mm 3 m/S 742 mmHg 92%
21:00 +1°C° 0 mm 4 m/S 742 mmHg 91%
22:00 +1°C° 0 mm 4 m/S 742 mmHg 90%
23:00 0°C° 0 mm 4 m/S 742 mmHg 89%
Mehr zeigen

Wir brauchen deine Erlaubnis

Meteoprog und unser Service Anbieter werden persönliche Daten aufbewahren, so wie Cookies, Geräte Bezeichnung oder ähnliche Technologien von deinem Gerät und Prozess, so wie Persönliche Daten Inhalte und Werbungen, genauso wie social Media und den Verkehr zu analysieren.

  • Aufbewahrung und/oder Zugang zu deiner Geräte Informationen.

    Cookies, Geräte Bezeichnung oder andere Informationen, können aufbewahrt oder Zugang zu deinem Gerät erhalten, für den Grund, der oben angegeben wird.

  • Personalisierte Werbung und Inhalte, Messungen, Einblick in das Publikum und Produkt Entwicklung.

    Werbungen und Inhalte können personalisiert werden, basierend auf ein Profil. Mehr Daten können besser personalisierte Werbungen und Inhalte hinzufügen. Werbung und Inhalte können gezeigt und gemessen werden. Einblicke über das Publikum, welche die Werbung gesehen haben und den Inhalt, können abgeleitet werden. So wie Daten können genutzt werden, um es zu verbessern oder die Benutzer Erfahrung zu verbessern das System und die Software.

Wenn du “Ich stimme zu” klickst, erlaubst du uns, die Cookies zu benutzen die Geräte Bezeichnung, den Web oder ähnliche Technologien zu benutzen. Deine Settings, können in deinem Gerät bei deinem Browser geändert werden.

Für den bestimmten Zweck, berechtigten Interessen beruhen darauf, mehr als auf den Inhalt. Du kannst mehr darüber in unseren Privaten und Cookie Politik lesen.